Location: Unspecified
(29.9680°N, 0.0000°E)
Time: 22:49:55
(UTC+00:00)

Altair - Visible Passes

Search period start: 17 June 2019 00:00
Search period end: 27 June 2019 00:00
Orbit: 1501 x 1683 km, 47.2° (Epoch: 16 June)

Date Brightness Start Highest point End Pass type
(mag) Time Alt. Az. Time Alt. Az. Time Alt. Az.
17 Jun 9.1 01:10:08 10° NW 01:18:48 32° NNE 01:27:36 10° ENE visible
17 Jun 8.0 03:15:15 10° NW 03:25:21 67° NE 03:35:27 10° ESE visible
17 Jun 7.8 20:29:51 10° WSW 20:39:18 71° NW 20:49:12 10° NE visible
17 Jun 9.0 22:37:11 10° WNW 22:45:40 32° NNW 22:54:23 10° NE visible
18 Jun 9.1 00:44:51 10° NW 00:53:24 31° NNE 01:02:06 10° ENE visible
18 Jun 8.1 02:50:04 10° NW 03:00:05 63° NE 03:10:08 10° ESE visible
18 Jun 7.8 20:04:39 10° SW 20:14:06 76° NW 20:23:59 10° NE visible
18 Jun 9.0 22:11:45 10° WNW 22:20:17 33° NNW 22:29:05 10° NE visible
19 Jun 9.2 00:19:33 10° NW 00:27:59 30° N 00:36:35 10° ENE visible
19 Jun 8.2 02:24:52 10° NW 02:34:49 59° NNE 02:44:48 10° ESE visible
19 Jun 7.9 04:30:04 10° WNW 04:39:36 48° SW 04:49:05 10° SSE visible
19 Jun 7.7 19:39:28 10° SW 19:48:53 82° NW 19:58:45 10° NE visible
19 Jun 9.0 21:46:20 10° W 21:54:54 35° NNW 22:03:48 10° NE visible
19 Jun 9.2 23:54:14 10° NW 00:02:35 29° N 00:11:05 10° ENE visible
20 Jun 8.2 01:59:41 10° NW 02:09:32 55° NNE 02:19:26 10° ESE visible
20 Jun 7.8 04:04:45 10° WNW 04:14:27 52° SW 04:24:07 10° SSE visible
20 Jun 7.7 19:14:19 10° SW 19:23:42 88° NW 19:33:33 10° NE visible
20 Jun 8.9 21:20:55 10° W 21:29:34 36° NNW 21:38:30 10° NE visible
20 Jun 9.2 23:28:54 10° NW 23:37:10 29° N 23:45:35 10° ENE visible
21 Jun 8.3 01:34:30 10° NW 01:44:14 51° NNE 01:54:03 10° ESE visible
21 Jun 7.7 03:39:27 10° WNW 03:49:17 58° SW 03:59:06 10° SSE visible
21 Jun 8.9 20:55:31 10° W 21:04:13 38° NNW 21:13:15 10° NE visible
21 Jun 9.2 23:03:34 10° NW 23:11:45 28° N 23:20:07 10° ENE visible
22 Jun 8.4 01:09:19 10° NW 01:18:55 48° NNE 01:28:38 10° ESE visible
22 Jun 7.6 03:14:11 10° NW 03:24:07 63° SW 03:34:03 10° SSE visible
22 Jun 8.8 20:30:08 10° W 20:38:53 40° NNW 20:47:59 10° NE visible
22 Jun 9.2 22:38:14 10° NW 22:46:20 28° N 22:54:38 10° ENE visible
23 Jun 8.5 00:44:07 10° NW 00:53:36 45° NNE 01:03:13 10° E visible
23 Jun 7.5 02:48:56 10° NW 02:58:56 69° SW 03:08:59 10° SE visible
23 Jun 8.8 20:04:45 10° W 20:13:34 42° NNW 20:22:46 10° NE visible
23 Jun 9.2 22:12:52 10° NW 22:20:54 28° N 22:29:10 10° ENE visible
24 Jun 8.5 00:18:56 10° NW 00:28:16 43° NNE 00:37:46 10° E visible
24 Jun 7.5 02:23:43 10° NW 02:33:45 74° SW 02:43:52 10° SE visible
24 Jun 8.7 04:31:27 10° W 04:37:32 18° WSW 04:43:38 10° SSW visible
24 Jun 8.7 19:39:23 10° W 19:48:16 44° NNW 19:57:32 10° NE visible
24 Jun 9.2 21:47:29 10° WNW 21:55:30 28° N 22:03:44 10° NE visible
24 Jun 8.6 23:53:44 10° NW 00:02:56 41° NNE 00:12:19 10° E visible
25 Jun 7.5 01:58:30 10° NW 02:08:33 80° SW 02:18:43 10° SE visible
25 Jun 8.5 04:05:41 10° W 04:12:26 20° SW 04:19:13 10° SSW visible
25 Jun 8.7 19:14:02 10° W 19:22:59 47° NNW 19:32:18 10° NE visible
25 Jun 9.2 21:22:06 10° WNW 21:30:05 28° N 21:38:18 10° NE visible
25 Jun 8.7 23:28:32 10° NW 23:37:35 39° NNE 23:46:50 10° E visible
26 Jun 7.5 01:33:17 10° NW 01:43:21 86° SW 01:53:33 10° SE visible
26 Jun 8.4 03:40:02 10° WNW 03:47:20 23° SW 03:54:41 10° S visible
26 Jun 9.2 20:56:42 10° WNW 21:04:41 28° N 21:12:53 10° NE visible
26 Jun 8.7 23:03:20 10° NW 23:12:14 37° NNE 23:21:21 10° E visible
